Location: Heidgraben
(53.7081°N, 9.6576°E)
Time: 23:49:05
(UTC+00:00)

Cosmos 2333 Rocket - Pass Details

Date: 25 October 2020
Orbit: 841 x 861 km, 70.8° (Epoch: 28 November)

Event Time Altitude Azimuth Distance (km) Brightness Sun altitude
Exits shadow 03:02:53 11° 336° (NNW) 2,403 4.5 -27.7°
Maximum altitude 03:05:18 14° 3° (N) 2,207 4.6 -27.4°
Drops below altitude 10° 03:08:14 10° 34° (NE) 2,482 5.2 -27.0°
Sets 03:12:01 0° 59° (ENE) 3,413 6.6 -26.5°
